Weather History for KONL - September, 2013

Change the Weather History Date:

Sunday, September 15, 2013

  Actual Average Record
Temperature  
Mean Temperature 64 °F -  
Max Temperature 69 °F 75 °F 99 °F (1955)
Min Temperature 59 °F 49 °F 34 °F (1984)
Degree Days  
Heating Degree Days 1    
Growing Degree Days 14 (Base 50)    
Moisture  
Dew Point 54 °F    
Average Humidity 72    
Maximum Humidity 85    
Minimum Humidity 54    
Precipitation  
Precipitation 0.00 in - - ()
Sea Level Pressure  
Sea Level Pressure 30.13 in    
Wind  
Wind Speed 12 mph (NNE)    
Max Wind Speed 20 mph    
Max Gust Speed 26 mph    
Visibility 10 miles    
Events      
Averages and records for this station are not official NWS values.
T = Trace of Precipitation, MM = Missing Value Source: NWS Daily Summary

Daily Weather History Graph

Daily Weather History Graph

Search for Another Location

Airport or City:

Trip Planner

Search our weather history database for the weather conditions in past years. The results will help you decide how hot, cold, wet, or windy it might be!

Date:

Astronomy

Sep. 15, 2013 Rise Set
Actual Time 7:14 AM CDT 7:43 PM CDT
Civil Twilight 6:46 AM CDT 8:12 PM CDT
Nautical Twilight 6:13 AM CDT 8:45 PM CDT
Astronomical Twilight 5:38 AM CDT 9:19 PM CDT
Moon 5:16 PM CDT (9/15) 2:50 AM CDT (9/15)
Length of Visible Light 13h 25m
Length of Day
12h 29m
Waxing Gibbous, 82% of the Moon is Illuminated
Sep 15
Waxing Gibbous
Sep 19
Full
Sep 26
Last Quarter
Oct 4
New
Oct 11
First Quarter

Hourly Weather History & Observations

Time (CDT) Temp. Dew Point Humidity Pressure Visibility Wind Dir Wind Speed Gust Speed Precip Events Conditions
12:15 AM 66.6 °F 59.0 °F 77% 29.89 in 10.0 mi West 9.2 mph - N/A   Clear
12:35 AM 66.2 °F 59.2 °F 78% 29.88 in 10.0 mi SW 5.8 mph - N/A   Scattered Clouds
12:55 AM 67.1 °F 59.0 °F 75% 29.90 in 10.0 mi NW 16.1 mph - N/A   Mostly Cloudy
1:15 AM 65.3 °F 57.4 °F 76% 29.90 in 10.0 mi NNW 10.4 mph - N/A   Clear
1:35 AM 64.0 °F 57.2 °F 78% 29.91 in 10.0 mi NNW 9.2 mph - N/A   Scattered Clouds
1:55 AM 63.1 °F 57.2 °F 81% 29.92 in 10.0 mi NNW 9.2 mph - N/A   Scattered Clouds
2:15 AM 62.8 °F 57.2 °F 82% 29.92 in 10.0 mi NNW 11.5 mph - N/A   Mostly Cloudy
2:35 AM 63.5 °F 57.7 °F 81% 29.93 in 10.0 mi North 10.4 mph - N/A   Overcast
2:55 AM 63.5 °F 57.9 °F 82% 29.95 in 10.0 mi NNW 8.1 mph - N/A   Overcast
3:15 AM 63.5 °F 58.1 °F 83% 29.95 in 10.0 mi NNW 10.4 mph - N/A   Overcast
3:35 AM 63.5 °F 58.1 °F 83% 29.95 in 10.0 mi North 13.8 mph - N/A   Overcast
3:55 AM 62.6 °F 57.4 °F 83% 29.96 in 10.0 mi North 18.4 mph 23.0 mph N/A   Overcast
4:15 AM 61.3 °F 56.7 °F 85% 29.97 in 10.0 mi NNW 17.3 mph 24.2 mph N/A   Overcast
4:35 AM 61.3 °F 55.8 °F 82% 29.98 in 10.0 mi North 15.0 mph 23.0 mph N/A   Overcast
4:55 AM 61.0 °F 54.7 °F 80% 29.99 in 10.0 mi North 13.8 mph 23.0 mph N/A   Overcast
5:15 AM 61.3 °F 54.9 °F 79% 30.00 in 10.0 mi NNW 15.0 mph 21.9 mph N/A   Overcast
5:35 AM 60.8 °F 55.2 °F 82% 30.01 in 10.0 mi NNW 19.6 mph 23.0 mph N/A   Overcast
5:55 AM 60.8 °F 55.4 °F 82% 30.01 in 10.0 mi NNW 16.1 mph 20.7 mph N/A   Overcast
6:15 AM 60.4 °F 55.4 °F 83% 30.01 in 10.0 mi North 17.3 mph 23.0 mph N/A   Overcast
6:35 AM 60.4 °F 55.4 °F 83% 30.02 in 10.0 mi North 17.3 mph 23.0 mph N/A   Overcast
6:55 AM 59.9 °F 54.0 °F 81% 30.04 in 10.0 mi North 18.4 mph 26.5 mph N/A   Overcast
7:15 AM 59.4 °F 53.6 °F 81% 30.05 in 10.0 mi North 17.3 mph 25.3 mph N/A   Overcast
7:35 AM 59.4 °F 53.6 °F 81% 30.07 in 10.0 mi North 13.8 mph 18.4 mph N/A   Overcast
7:55 AM 59.4 °F 53.8 °F 82% 30.08 in 10.0 mi North 12.7 mph - N/A   Overcast
8:15 AM 59.0 °F 53.8 °F 83% 30.09 in 7.0 mi North 16.1 mph 23.0 mph N/A   Overcast
8:35 AM 59.5 °F 53.1 °F 79% 30.09 in 10.0 mi North 15.0 mph 23.0 mph N/A   Overcast
8:55 AM 59.7 °F 53.2 °F 79% 30.10 in 10.0 mi North 13.8 mph 19.6 mph N/A   Overcast
9:15 AM 59.4 °F 53.6 °F 81% 30.11 in 10.0 mi North 15.0 mph 18.4 mph N/A   Overcast
9:35 AM 59.9 °F 52.9 °F 78% 30.12 in 10.0 mi North 10.4 mph - N/A   Overcast
9:55 AM 60.3 °F 52.7 °F 76% 30.13 in 10.0 mi North 15.0 mph - N/A   Overcast
10:15 AM 60.3 °F 51.8 °F 74% 30.14 in 10.0 mi NNE 15.0 mph 21.9 mph N/A   Overcast
10:35 AM 61.5 °F 52.0 °F 71% 30.15 in 10.0 mi NNE 13.8 mph 18.4 mph N/A   Overcast
10:55 AM 62.4 °F 51.8 °F 68% 30.16 in 10.0 mi North 16.1 mph 19.6 mph N/A   Overcast
11:15 AM 62.4 °F 52.5 °F 70% 30.16 in 10.0 mi NNE 13.8 mph 19.6 mph N/A   Mostly Cloudy
11:35 AM 64.0 °F 52.3 °F 66% 30.17 in 10.0 mi North 15.0 mph 21.9 mph N/A   Mostly Cloudy
11:55 AM 64.0 °F 51.8 °F 64% 30.17 in 10.0 mi NNE 18.4 mph - N/A   Mostly Cloudy
12:15 PM 68.0 °F 52.7 °F 58% 30.17 in 10.0 mi NNE 19.6 mph 23.0 mph N/A   Mostly Cloudy
12:35 PM 66.7 °F 52.5 °F 60% 30.17 in 10.0 mi NNE 18.4 mph 23.0 mph N/A   Mostly Cloudy
12:55 PM 67.5 °F 52.3 °F 58% 30.18 in 10.0 mi NNE 15.0 mph 23.0 mph N/A   Scattered Clouds
1:15 PM 66.7 °F 52.0 °F 59% 30.18 in 10.0 mi NNE 16.1 mph 20.7 mph N/A   Mostly Cloudy
1:35 PM 68.0 °F 52.5 °F 58% 30.19 in 10.0 mi North 13.8 mph 21.9 mph N/A   Mostly Cloudy
1:55 PM 67.8 °F 52.3 °F 58% 30.19 in 10.0 mi NNE 17.3 mph 21.9 mph N/A   Mostly Cloudy
2:15 PM 68.5 °F 52.0 °F 55% 30.19 in 10.0 mi NNE 16.1 mph 21.9 mph N/A   Mostly Cloudy
2:35 PM 68.2 °F 51.3 °F 55% 30.19 in 10.0 mi NNE 11.5 mph 20.7 mph N/A   Mostly Cloudy
2:55 PM 69.3 °F 52.0 °F 54% 30.21 in 10.0 mi NNE 10.4 mph 20.7 mph N/A   Mostly Cloudy
3:15 PM 68.0 °F 52.3 °F 57% 30.21 in 10.0 mi NNE 13.8 mph 21.9 mph N/A   Mostly Cloudy
3:35 PM 67.1 °F 52.2 °F 59% 30.21 in 10.0 mi NNE 17.3 mph 20.7 mph N/A   Overcast
3:55 PM 66.4 °F 52.0 °F 60% 30.21 in 10.0 mi NNE 15.0 mph 24.2 mph N/A   Overcast
4:15 PM 66.9 °F 51.6 °F 58% 30.21 in 10.0 mi NE 15.0 mph 19.6 mph N/A   Overcast
4:35 PM 66.7 °F 51.3 °F 57% 30.22 in 10.0 mi NNE 15.0 mph 20.7 mph N/A   Mostly Cloudy
4:55 PM 65.5 °F 52.0 °F 62% 30.23 in 10.0 mi NE 10.4 mph - N/A   Overcast
5:15 PM 64.6 °F 53.4 °F 67% 30.23 in 10.0 mi North 10.4 mph 16.1 mph N/A   Overcast
5:35 PM 64.4 °F 52.9 °F 66% 30.24 in 10.0 mi NNE 9.2 mph - N/A   Overcast
5:55 PM 64.4 °F 52.5 °F 65% 30.24 in 10.0 mi NNE 11.5 mph - N/A   Overcast
6:15 PM 64.4 °F 51.8 °F 64% 30.24 in 10.0 mi NNE 11.5 mph - N/A   Overcast
6:35 PM 63.7 °F 51.8 °F 65% 30.24 in 10.0 mi NNE 11.5 mph 16.1 mph N/A   Overcast
6:55 PM 63.5 °F 52.0 °F 66% 30.25 in 10.0 mi NNE 9.2 mph - N/A   Overcast
7:15 PM 63.1 °F 51.8 °F 66% 30.25 in 10.0 mi NNE 12.7 mph 17.3 mph N/A   Overcast
7:35 PM 62.6 °F 51.8 °F 68% 30.25 in 10.0 mi NNE 8.1 mph - N/A   Overcast
7:55 PM 62.6 °F 50.9 °F 66% 30.25 in 10.0 mi NE 10.4 mph - N/A   Overcast
8:15 PM 61.7 °F 52.9 °F 73% 30.26 in 10.0 mi North 4.6 mph - N/A   Overcast
8:35 PM 61.3 °F 53.6 °F 76% 30.27 in 10.0 mi North 5.8 mph - N/A   Overcast
8:55 PM 61.2 °F 53.6 °F 76% 30.28 in 10.0 mi Calm Calm - N/A   Overcast
9:15 PM 61.2 °F 53.8 °F 77% 30.28 in 10.0 mi NNE 4.6 mph - N/A   Overcast
9:35 PM 61.0 °F 53.8 °F 77% 30.28 in 10.0 mi NNE 4.6 mph - N/A   Overcast
9:55 PM 61.2 °F 53.6 °F 76% 30.29 in 10.0 mi NE 5.8 mph - N/A   Overcast
10:15 PM 61.2 °F 53.2 °F 75% 30.29 in 10.0 mi ENE 8.1 mph - N/A   Overcast
10:35 PM 60.8 °F 52.5 °F 74% 30.29 in 10.0 mi ENE 9.2 mph - N/A   Overcast
10:55 PM 60.3 °F 52.2 °F 75% 30.30 in 10.0 mi ENE 5.8 mph - N/A   Overcast
11:15 PM 59.9 °F 52.9 °F 78% 30.31 in 10.0 mi East 4.6 mph - N/A   Overcast
11:35 PM 59.5 °F 52.3 °F 77% 30.31 in 10.0 mi East 4.6 mph - N/A   Overcast
11:55 PM 59.2 °F 52.0 °F 77% 30.31 in 10.0 mi East 4.6 mph - N/A   Overcast